FW0091 Weather Reports


time (UTC)temp
C
wind
direction
speed
KPH
gust
KPH
rain 1hr
cm
rain 24hr
cm
rain mn
cm
humidity
%
barometer
mb
20260504110506 15 269 1.6 6.4 0.00 0.00 0.00 61 1008.7
20260504100602 16 283 1.6 8.0 0.00 0.00 0.00 60 1008.7
20260504081547 17 323 0.0 17.7 0.00 0.00 0.00 58 1008.8
20260504081043 17 286 0.0 17.7 0.00 0.00 0.00 58 1008.8
20260504080543 17 315 1.6 11.3 0.00 0.00 0.00 58 1008.7
20260504050531 18 267 0.0 1.6 0.00 0.00 0.00 57 1009.2
20260504045529 18 267 0.0 1.6 0.00 0.00 0.00 57 1009.3
20260504045029 18 267 0.0 1.6 0.00 0.00 0.00 56 1009.2
20260504044538 18 265 0.0 1.6 0.00 0.00 0.00 56 1009.1
20260504044030 18 265 0.0 1.6 0.00 0.00 0.00 57 1009.2
20260504043529 19 265 0.0 3.2 0.00 0.00 0.00 56 1009.2
20260504043029 19 265 0.0 3.2 0.00 0.00 0.00 57 1009.0
20260504042528 20 265 0.0 3.2 0.00 0.00 0.00 56 1009.1
20260504042033 20 265 0.0 1.6 0.00 0.00 0.00 55 1009.0
20260504041531 20 265 0.0 1.6 0.00 0.00 0.00 54 1009.1
20260504041028 20 265 0.0 0.0 0.00 0.00 0.00 52 1009.0
20260504040529 20 265 0.0 1.6 0.00 0.00 0.00 51 1008.9
20260504040028 20 265 0.0 1.6 0.00 0.00 0.00 51 1009.0
20260504035527 20 265 0.0 1.6 0.00 0.00 0.00 51 1008.9
20260504035027 20 265 0.0 1.6 0.00 0.00 0.00 50 1008.9
20260504034528 21 265 0.0 3.2 0.00 0.00 0.00 51 1009.0
20260504034027 21 265 0.0 3.2 0.00 0.00 0.00 51 1009.0
20260504033531 21 303 0.0 1.6 0.00 0.00 0.00 48 1008.9
20260504033027 21 302 0.0 1.6 0.00 0.00 0.00 47 1009.0
20260504032527 21 302 0.0 1.6 0.00 0.00 0.00 47 1008.8
20260504032027 22 302 0.0 1.6 0.00 0.00 0.00 47 1008.8
20260504031527 22 302 0.0 1.6 0.00 0.00 0.00 48 1008.9
20260504031026 22 302 0.0 1.6 0.00 0.00 0.00 48 1008.9
20260504030526 22 302 0.0 1.6 0.00 0.00 0.00 48 1008.9
20260504030036 23 302 0.0 1.6 0.00 0.00 0.00 45 1009.0
20260504025526 23 302 0.0 1.6 0.00 0.00 0.00 44 1008.9
20260504025027 23 302 0.0 1.6 0.00 0.00 0.00 43 1008.9
20260504024525 23 302 0.0 0.0 0.00 0.00 0.00 44 1008.9
20260504024026 24 302 0.0 3.2 0.00 0.00 0.00 42 1009.1
20260504023524 24 302 0.0 3.2 0.00 0.00 0.00 41 1009.0
20260504023024 24 98 0.0 1.6 0.00 0.00 0.00 40 1009.1
20260504022524 25 96 0.0 1.6 0.00 0.00 0.00 42 1009.0
20260504022027 25 96 0.0 0.0 0.00 0.00 0.00 39 1009.1
20260504021528 25 96 0.0 1.6 0.00 0.00 0.00 39 1009.1
20260504021023 25 96 0.0 1.6 0.00 0.00 0.00 37 1009.2
20260504020523 25 96 0.0 1.6 0.00 0.00 0.00 38 1009.3
20260504020022 25 96 0.0 1.6 0.00 0.00 0.00 39 1009.2
20260504015522 25 96 0.0 1.6 0.00 0.00 0.00 40 1009.2
20260504015025 25 96 0.0 1.6 0.00 0.00 0.00 37 1009.3
20260504014521 25 96 0.0 1.6 0.00 0.00 0.00 36 1009.4
20260504014024 25 96 0.0 1.6 0.00 0.00 0.00 35 1009.4
20260504013523 25 96 0.0 3.2 0.00 0.00 0.00 34 1009.4
20260504013021 26 96 0.0 1.6 0.00 0.00 0.00 37 1009.5
20260504012522 26 96 0.0 1.6 0.00 0.00 0.00 34 1009.6
20260504012021 26 96 0.0 3.2 0.00 0.00 0.00 33 1009.6
20260504011519 26 96 0.0 8.0 0.00 0.00 0.00 32 1009.5
20260504011019 27 346 0.0 8.0 0.00 0.00 0.00 31 1009.6
20260504010518 27 238 0.0 6.4 0.00 0.00 0.00 32 1009.6
20260504010018 27 263 0.0 6.4 0.00 0.00 0.00 31 1009.7
20260504005520 27 228 1.6 12.9 0.00 0.00 0.00 30 1009.7
20260504005017 26 227 1.6 12.9 0.00 0.00 0.00 31 1009.8
20260504004522 27 56 0.0 11.3 0.00 0.00 0.00 31 1009.8
20260504004015 26 214 0.0 3.2 0.00 0.00 0.00 34 1009.8
20260504003515 27 141 0.0 3.2 0.00 0.00 0.00 33 1009.9
20260504003015 27 248 0.0 3.2 0.00 0.00 0.00 34 1009.9
20260504002515 27 263 0.0 6.4 0.00 0.00 0.00 32 1010.0
20260504002014 26 300 0.0 4.8 0.00 0.00 0.00 35 1010.1
20260504001514 26 108 0.0 4.8 0.00 0.00 0.00 35 1010.1
20260504001013 26 109 0.0 3.2 0.00 0.00 0.00 35 1010.3
20260504000511 27 107 0.0 3.2 0.00 0.00 0.00 35 1010.3
20260504000011 27 107 0.0 4.8 0.00 0.00 0.00 34 1010.4
20260503235511 27 107 0.0 6.4 0.00 0.00 0.00 36 1010.4
20260503235011 27 106 1.6 6.4 0.00 0.00 0.00 33 1010.4
20260503234521 27 103 0.0 6.4 0.00 0.00 0.00 33 1010.4
20260503234011 27 107 1.6 6.4 0.00 0.00 0.00 36 1010.4
20260503233509 27 103 1.6 6.4 0.00 0.00 0.00 35 1010.5
20260503233009 27 103 1.6 6.4 0.00 0.00 0.00 35 1010.6
20260503232509 27 92 1.6 6.4 0.00 0.00 0.00 35 1010.7
20260503232008 27 95 3.2 6.4 0.00 0.00 0.00 36 1010.7
20260503231508 27 119 0.0 4.8 0.00 0.00 0.00 33 1010.8
20260503231011 27 119 1.6 6.4 0.00 0.00 0.00 36 1010.9
20260503230510 27 126 1.6 6.4 0.00 0.00 0.00 34 1011.0
20260503230006 27 103 1.6 6.4 0.00 0.00 0.00 34 1011.0
20260503225503 27 103 1.6 6.4 0.00 0.00 0.00 37 1011.1
20260503225003 27 102 3.2 6.4 0.00 0.00 0.00 39 1011.1
20260503224503 27 98 1.6 6.4 0.00 0.00 0.00 39 1011.2
20260503224002 27 116 1.6 4.8 0.00 0.00 0.00 37 1011.2
20260503223501 27 96 0.0 6.4 0.00 0.00 0.00 36 1011.3
20260503223002 27 103 1.6 6.4 0.00 0.00 0.00 36 1011.4
20260503222501 27 103 1.6 9.7 0.00 0.00 0.00 40 1011.3
20260503222059 27 94 3.2 9.7 0.00 0.00 0.00 34 1011.4
20260503221559 27 91 3.2 6.4 0.00 0.00 0.00 36 1011.5
20260503221058 27 105 3.2 6.4 0.00 0.00 0.00 37 1011.6
20260503220558 27 69 0.0 6.4 0.00 0.00 0.00 37 1011.6
20260503220059 27 102 3.2 6.4 0.00 0.00 0.00 41 1011.7
20260503215555 27 104 1.6 9.7 0.00 0.00 0.00 41 1011.9
20260503215055 27 99 1.6 9.7 0.00 0.00 0.00 36 1011.8
20260503214555 27 113 3.2 9.7 0.00 0.00 0.00 43 1011.8
20260503214053 27 105 0.0 9.7 0.00 0.00 0.00 42 1011.9
20260503213552 27 107 1.6 4.8 0.00 0.00 0.00 38 1012.0
20260503213057 26 100 0.0 4.8 0.00 0.00 0.00 36 1012.2
20260503212552 26 115 0.0 11.3 0.00 0.00 0.00 40 1012.2
20260503212049 26 346 1.6 11.3 0.00 0.00 0.00 40 1012.2
20260503211548 26 111 1.6 9.7 0.00 0.00 0.00 42 1012.2
20260503211047 26 111 1.6 9.7 0.00 0.00 0.00 43 1012.3
20260503210546 26 105 3.2 9.7 0.00 0.00 0.00 44 1012.3
20260503210050 25 113 1.6 9.7 0.00 0.00 0.00 43 1012.2
20260503205544 25 113 1.6 9.7 0.00 0.00 0.00 44 1012.4
20260503205044 25 108 3.2 8.0 0.00 0.00 0.00 39 1012.6
20260503204542 25 117 1.6 9.7 0.00 0.00 0.00 39 1012.5
20260503204043 24 105 1.6 9.7 0.00 0.00 0.00 39 1012.6
20260503203540 24 103 1.6 6.4 0.00 0.00 0.00 48 1012.7
20260503203038 24 112 3.2 11.3 0.00 0.00 0.00 45 1012.8
20260503202538 23 80 4.8 12.9 0.00 0.00 0.00 44 1013.0
20260503202037 23 116 3.2 12.9 0.00 0.00 0.00 43 1012.9
20260503201536 23 109 4.8 14.5 0.00 0.00 0.00 45 1013.0
20260503201035 24 106 3.2 14.5 0.00 0.00 0.00 44 1013.0
20260503200534 24 102 0.0 3.2 0.00 0.00 0.00 39 1013.0
20260503200036 23 102 0.0 6.4 0.00 0.00 0.00 38 1013.2
20260503195532 23 103 0.0 9.7 0.00 0.00 0.00 42 1013.2
20260503195031 23 113 0.0 6.4 0.00 0.00 0.00 39 1013.2
20260503194531 22 115 1.6 4.8 0.00 0.00 0.00 38 1013.2
20260503194031 23 61 0.0 4.8 0.00 0.00 0.00 42 1013.2
20260503193530 23 129 0.0 3.2 0.00 0.00 0.00 41 1013.2
20260503193034 22 223 0.0 9.7 0.00 0.00 0.00 41 1013.2
20260503192528 22 98 3.2 9.7 0.00 0.00 0.00 46 1013.2
20260503192031 22 12 0.0 3.2 0.00 0.00 0.00 43 1013.3
20260503191528 22 46 0.0 3.2 0.00 0.00 0.00 44 1013.3
20260503191029 22 88 0.0 4.8 0.00 0.00 0.00 44 1013.4
20260503190527 22 109 0.0 9.7 0.00 0.00 0.00 42 1013.3
20260503190030 22 105 0.0 4.8 0.00 0.00 0.00 43 1013.3
20260503185527 22 61 0.0 11.3 0.00 0.00 0.00 46 1013.5
20260503185025 22 82 1.6 11.3 0.00 0.00 0.00 46 1013.5
20260503184525 22 54 0.0 6.4 0.00 0.00 0.00 47 1013.5
20260503184025 22 110 1.6 6.4 0.00 0.00 0.00 47 1013.5
20260503183524 22 316 0.0 3.2 0.00 0.00 0.00 44 1013.5
20260503183035 22 159 0.0 4.8 0.00 0.00 0.00 51 1013.6
20260503182523 22 151 0.0 4.8 0.00 0.00 0.00 50 1013.6
20260503182021 22 112 0.0 4.8 0.00 0.00 0.00 46 1013.6
20260503181522 21 92 0.0 4.8 0.00 0.00 0.00 50 1013.6
20260503181020 21 104 0.0 1.6 0.00 0.00 0.00 51 1013.8
20260503180520 22 119 0.0 4.8 0.00 0.00 0.00 52 1014.0
20260503180020 21 119 0.0 4.8 0.00 0.00 0.00 49 1013.9
20260503175518 21 59 0.0 4.8 0.00 0.00 0.00 53 1014.0
20260503175020 21 314 0.0 4.8 0.00 0.00 0.00 52 1014.0
20260503174517 21 115 0.0 3.2 0.00 0.00 0.00 55 1013.9
20260503174016 20 107 0.0 3.2 0.00 0.00 0.00 54 1014.1
20260503173519 20 161 0.0 1.6 0.00 0.00 0.00 55 1014.2
20260503173017 20 159 0.0 6.4 0.00 0.00 0.00 53 1014.1
20260503172614 20 323 1.6 9.7 0.00 0.00 0.00 53 1014.1
20260503172014 20 103 1.6 9.7 0.00 0.00 0.00 55 1014.0
20260503171513 19 227 0.0 6.4 0.00 0.00 0.00 55 1014.1
20260503171011 18 255 0.0 6.4 0.00 0.00 0.00 56 1014.1
20260503170510 18 292 0.0 4.8 0.00 0.00 0.00 56 1014.1
20260503150552 13 319 3.2 12.9 0.00 0.00 0.00 74 1014.8
20260503131044 11 297 3.2 8.0 0.00 0.00 0.00 81 1014.8
20260503130543 11 306 1.6 8.0 0.00 0.00 0.00 81 1014.8